AirNav   Everest Fuels
 
 477 users online  

KLOM Wings Field Airport
Philadelphia, Pennsylvania, USA

GOING TO PHILADELPHIA?


FAA INFORMATION EFFECTIVE 25 FEBRUARY 2021

Location

FAA Identifier: LOM
Lat/Long: 40-08-15.2000N 075-15-54.5000W
40-08.253333N 075-15.908333W
40.1375556,-75.2651389
(estimated)
Elevation: 301.5 ft. / 91.9 m (surveyed)
Variation: 12W (2005)
From city: 3 miles NW of PHILADELPHIA, PA
Time zone: UTC -5 (UTC -4 during Daylight Saving Time)
Zip code: 19422

Airport Operations

Airport use: Open to the public
Activation date: 12/1937
Control tower: no
ARTCC: NEW YORK CENTER
FSS: WILLIAMSPORT FLIGHT SERVICE STATION
NOTAMs facility: LOM (NOTAM-D service available)
Attendance: 0600-2200
Wind indicator: lighted
Segmented circle: yes
Lights: DUSK-DAWN. ACTIVATE MIRL RYS 06/24, PAPI & REIL RYS 06 & 24 - CTAF
Beacon: white-green (lighted land airport)
Operates sunset to sunrise.

Airport Communications

CTAF/UNICOM: 123.0
WX AWOS-3: 118.925 (215-646-1068)
PHILADELPHIA APPROACH: 126.85
PHILADELPHIA DEPARTURE: 126.85
CLEARANCE DELIVERY: 118.55
WX ASOS at PNE (12 nm E): 121.15 (215-677-0146)
WX ASOS at DYL (13 nm NE): 118.875 (215-345-0392)
WX ASOS at PTW (15 nm NW): 119.425 (610-495-0823)
WX AWOS-3 at CKZ (15 nm N): 126.325 (215-257-7291)
WX ASOS at PHL (16 nm S): PHONE 215-492-9617
WX AWOS-3T at OQN (17 nm SW): 121.4 ((610) 692-6190)
WX AWOS-3 at UKT (19 nm N): 119.475 (215-538-7610)
  • CLEARANCE DELIVERY PHILADELPHIA APCH TF 800-354-9884.

Nearby radio navigation aids

VOR radial/distance  VOR name  Freq  Var
PTWr120/14.5POTTSTOWN VORTAC116.5009W
ARDr257/17.8YARDLEY VOR/DME108.2010W
MXEr064/22.8MODENA VORTAC113.2009W
OODr013/30.1WOODSTOWN VORTAC112.8010W
GXUr296/31.6MC GUIRE VORTAC110.6012W
DQOr040/31.7DUPONT VORTAC114.0010W
ETXr153/32.8EAST TEXAS VOR/DME110.2009W
RBVr274/35.5ROBBINSVILLE VORTAC113.8010W
SBJr232/35.9SOLBERG VOR/DME112.9010W
FJCr176/36.4ALLENTOWN VORTAC117.5010W
VCNr349/38.5CEDAR LAKE VOR/DME115.2010W

 
NDB name  Hdg/Dist  Freq  Var  ID
AMBLER065/1.227512WING .. -. --.

Airport Services

Fuel available: 100LL JET-A
Parking: hangars and tiedowns
Airframe service: MAJOR
Powerplant service: MAJOR
Bulk oxygen: HIGH/LOW

Runway Information

Runway 6/24

Dimensions: 3700 x 75 ft. / 1128 x 23 m
Surface: asphalt, in good condition
Weight bearing capacity: 
Single wheel: 12.5
Runway edge lights: medium intensity
RUNWAY 6  RUNWAY 24
Latitude: 40-08.070930N40-08.436810N
Longitude: 075-16.225372W075-15.590463W
Elevation: 301.5 ft.278.7 ft.
Traffic pattern: leftleft
Runway heading: 065 magnetic, 053 true245 magnetic, 233 true
Displaced threshold: 177 ft.no
Markings: nonprecision, in good conditionnonprecision, in good condition
Visual slope indicator: 2-light PAPI on left (3.00 degrees glide path)2-light PAPI on left (3.00 degrees glide path)
Runway end identifier lights: yesyes
Touchdown point: yes, no lightsyes, no lights
Obstructions: 19 ft. pole, 241 ft. from runway, 175 ft. right of centerline, 2:1 slope to clear
22 FT POLE 169 FT FM RWY END 233 FT RIGHT. 32 FT OBS LT 77 FT FM RWY END 139 FT RIGHT. 17 FT OBS LT 56 FT FM RWY END 133 FT LEFT.
46 ft. trees, 598 ft. from runway, 254 ft. right of centerline, 8:1 slope to clear

Airport Ownership and Management from official FAA records

Ownership: Privately-owned
Owner: WINGS FIELD PRESERVATION ASSOC
1501 NARCISSA RD
BLUE BELL, PA 19422
Phone (215) 646-0400
Manager: JULIE WIEDOR
1501 NARCISSA RD
BLUE BELL, PA 19422
Phone 215-646-0400

Airport Operational Statistics

Aircraft based on the field: 109
Single engine airplanes: 93
Multi engine airplanes: 11
Jet airplanes: 2
Helicopters: 3
    
Aircraft operations: avg 83/day *
56% local general aviation
27% transient general aviation
17% air taxi
<1% military
* for 12-month period ending 19 June 2020

Additional Remarks

FOR CD CTC PHILADELPHIA APCH AT 800-354-9884.
RWY 6/24 NO TGLS.
NOISE ABATEMENT RYS 06 & 24 - NO TURNS AFTER TKOF BEFORE 1000 FT AGL. AVOID OVERFLIGHT OF SCHOOLS EAST & WEST OF ARPT.
LARGE FLOCKS OF GEESE ON & INVOF ARPT.
DEER ON & INVOF ARPT.
FOR SVC AFTER HRS CTC 215-646-0400.
PPR ALL ACFT EXCEEDING 12,500 LBS TKOF GROS WEIGHT OR ABOVE CALL 215-646-0400.

Instrument Procedures

NOTE: All procedures below are presented as PDF files. If you need a reader for these files, you should download the free Adobe Reader.

NOT FOR NAVIGATION. Please procure official charts for flight.
FAA instrument procedures published for use from 25 February 2021 at 0901Z to 25 March 2021 at 0900Z.

 
IAPs - Instrument Approach Procedures
RNAV (GPS) RWY 06   download (251KB)
RNAV (GPS) RWY 24   download (233KB)
NOTE: Special Alternate Minimums apply   download (21KB)
NOTE: Special Take-Off Minimums/Departure Procedures apply   download (149KB)

Other nearby airports with instrument procedures:

N10 - Perkiomen Valley Airport (9 nm NW)
KPNE - Northeast Philadelphia Airport (12 nm E)
KDYL - Doylestown Airport (13 nm NE)
KPTW - Heritage Field Airport (15 nm NW)
KCKZ - Pennridge Airport (15 nm N)
KPHL - Philadelphia International Airport (16 nm S)
KOQN - Brandywine Regional Airport (17 nm SW)
KUKT - Quakertown Airport (19 nm N)
N47 - Pottstown Municipal Airport (20 nm W)
 
Loc | Ops | Rwys | IFR | FBO | Links
Com | Nav | Svcs | Stats | Notes
Area around KLOM (Wings Field Airport)
 
Road maps at: MapQuest Bing Google
 
Aerial photo
WARNING: Photo may not be current or correct
Aerial photo of KLOM (Wings Field Airport)
Photo taken 14-Jun-2004

Do you have a better or more recent aerial photo of Wings Field Airport that you would like to share? If so, please send us your photo.

 
Sectional chart

 
Airport distance calculator
Flying to Wings Field Airport? Find the distance to fly.

From to KLOM

Sunrise and sunset
Times for 05-Mar-2021
 Local
(UTC-5)
 Zulu
(UTC)
Morning civil twilight06:0211:02
Sunrise06:3011:30
Sunset17:5622:56
Evening civil twilight18:2323:23

Current date and time
Zulu (UTC)  05-Mar-2021 05:49:14
Local (UTC-5)  05-Mar-2021 00:49:14
 
METAR
KLOM 050455Z AUTO 32008G16KT 10SM CLR M02/M13 A2995 RMK AO2 T10151127
KPNE 
12nm E 
050454Z AUTO 33008KT 10SM CLR M01/M12 A2996 RMK AO2 PK WND 33027/0416 SLP146 T10061122 400941011
KDYL 
14nm NE 
050454Z AUTO 32011G23KT 10SM CLR M02/M16 A2993 RMK AO2 SLP142 T10171156 400721017
KPTW 
14nm NW 
050454Z AUTO 32010KT 280V350 10SM CLR M02/M16 A2997 RMK AO2 SLP150 T10221161 400721028
KCKZ 
15nm N 
050455Z AUTO 31011G22KT 290V350 10SM CLR M03/M15 A2993 RMK AO2
KPHL 
16nm S 
050454Z 32012G24KT 10SM CLR 00/M13 A2996 RMK AO2 PK WND 33029/0402 SLP144 T00001133 400940000
KOQN 
17nm SW 
050455Z AUTO 10SM CLR 00/M12 A2995 RMK AO2
KUKT 
19nm N 
050455Z AUTO 27010G16KT 220V300 10SM CLR M03/M15 A2993 RMK A01
TAF
KPNE 
12nm E 
041720Z 0418/0518 32016G26KT P6SM BKN050 FM042300 32014G22KT P6SM FEW200 FM051400 30016G26KT P6SM SKC
KPHL 
16nm S 
042040Z 0421/0524 30016G26KT P6SM BKN050 FM042300 32014G22KT P6SM FEW200 FM051400 30016G26KT P6SM SKC
NOTAMs
Click for the latest NOTAMs
NOTAMs are issued by the DoD/FAA and will open in a separate window not controlled by AirNav.

 

 
 

FBO, Fuel Providers, and Aircraft Ground Support

  
 Business Name 
 
 Contact 
 
 Services / Description 
 
Fuel Prices
 
Comments
  
 flyADVANCED
215-646-0400
toll-free 1-888-958-4670
[web site]
[email]

Like us on facebook
Airport management, Aviation fuel, Aircraft ground handling, Oxygen service, Aircraft parking (ramp or tiedown), Hangars, Hangar leasing / sales, ...
 
Shell AeroClass   Contract Fuel   Crew cars   Enterprise Rent-A-Car   Cirrus   Wireless Internet Access (WiFi)   Wheelchair Accessible   National Business Aviation Association  
 
More info about flyADVANCED
Shell
100LL Jet A
FS $5.59 $5.45 
 Updated 02-Mar-2021
 
   5 read write
FS=Full service
Update Fuel Prices
 

Would you like to see your business listed on this page?

 If your business provides an interesting product or service to pilots, flight crews, aircraft, or users of the Wings Field Airport, you should consider listing it here.  To start the listing process, click on the button below
 
Add a business
 

Other Pages about Wings Field Airport

www.wingsfield.com
 
Update a link
 
Copyright © AirNav, LLC. All rights reserved. Privacy Policy  Contact